This is the latest recevied weather packets stored in our database for station/object W0SS-13. If no packets are shown the sender has not sent any weather packets the latest 10 day(s).
| Time | Temp. | Humidity | Pressure | Rain* | Wind** | Luminosity | Snow |
|---|---|---|---|---|---|---|---|
| 1778080869 | 11.67° C | 49% | 1019.5 hPa | 0 mm | - | 302 W/m² | - |
| 1778080567 | 12.22° C | 51% | 1019.7 hPa | 0 mm | - | 354 W/m² | - |
| 1778080264 | 12.22° C | 56% | 1019.6 hPa | 0 mm | - | 552 W/m² | - |
| 1778079961 | 11.67° C | 53% | 1019.7 hPa | 0 mm | - | 552 W/m² | - |
| 1778079657 | 11.67° C | 51% | 1019.8 hPa | 0 mm | - | 536 W/m² | - |
| 1778079354 | 11.67° C | 56% | 1019.5 hPa | 0 mm | - | 522 W/m² | - |
| 1778079051 | 11.67° C | 57% | 1019.6 hPa | 0 mm | - | 511 W/m² | - |
| 1778078748 | 11.11° C | 57% | 1019.7 hPa | 0 mm | - | 490 W/m² | - |
| 1778078445 | 11.11° C | 59% | 1019.7 hPa | 0 mm | - | 473 W/m² | - |
| 1778078143 | 11.67° C | 56% | 1019.7 hPa | 0 mm | - | 461 W/m² | - |
| 1778077841 | 11.11° C | 59% | 1019.9 hPa | 0 mm | - | 435 W/m² | - |
| 1778077539 | 11.11° C | 58% | 1019.8 hPa | 0 mm | - | 256 W/m² | - |
| 1778077237 | 11.11° C | 58% | 1019.8 hPa | 0 mm | - | 421 W/m² | - |
| 1778076934 | 11.11° C | 59% | 1019.6 hPa | 0 mm | - | 405 W/m² | - |
| 1778076632 | 11.11° C | 58% | 1019.5 hPa | 0 mm | - | 383 W/m² | - |
| 1778076329 | 11.11° C | 60% | 1019.6 hPa | 0 mm | - | 360 W/m² | - |
| 1778076027 | 11.11° C | 64% | 1019.6 hPa | 0 mm | - | 327 W/m² | - |
| 1778075723 | 10.56° C | 64% | 1019.4 hPa | 0 mm | - | 307 W/m² | - |
| 1778075420 | 10.56° C | 63% | 1019.7 hPa | 0 mm | - | 301 W/m² | - |
| 1778075116 | 10.56° C | 60% | 1019.4 hPa | 0 mm | - | 281 W/m² | - |
| 1778074812 | 10.56° C | 62% | 1019.4 hPa | 0 mm | - | 284 W/m² | - |
| 1778074510 | 10.56° C | 65% | 1019 hPa | 0 mm | - | 228 W/m² | - |
| 1778074206 | 10.56° C | 65% | 1019.1 hPa | 0 mm | - | 224 W/m² | - |
| 1778073903 | 10° C | 65% | 1019 hPa | 0 mm | - | 297 W/m² | - |
| 1778073601 | 10° C | 67% | 1019.1 hPa | 0 mm | - | 151 W/m² | - |
* Rain latest hour (hover to see other rain measurements)
** Current wind speed in m/s (hover to see current wind gust speed)